This is the latest recevied weather packets stored in our database for station/object K2RMB. If no packets are shown the sender has not sent any weather packets the latest 10 day(s).
| Time | Temp. | Humidity | Pressure | Rain* | Wind** | Luminosity | Snow |
|---|---|---|---|---|---|---|---|
| 1777330830 | 20° C | 32% | 1023 hPa | 0 mm | - | 30 W/m² | - |
| 1777330527 | 20° C | 31% | 1023 hPa | 0 mm | - | 31 W/m² | - |
| 1777330225 | 20.56° C | 29% | 1023 hPa | 0 mm | - | 32 W/m² | - |
| 1777329923 | 20.56° C | 29% | 1023 hPa | 0 mm | - | 36 W/m² | - |
| 1777329621 | 20.56° C | 28% | 1023 hPa | 0 mm | - | 39 W/m² | - |
| 1777329319 | 21.11° C | 28% | 1023.4 hPa | 0 mm | - | 46 W/m² | - |
| 1777329016 | 21.67° C | 28% | 1023 hPa | 0 mm | - | 63 W/m² | - |
| 1777328714 | 22.22° C | 26% | 1023 hPa | 0 mm | - | 73 W/m² | - |
| 1777328411 | 22.22° C | 29% | 1023 hPa | 0 mm | - | 101 W/m² | - |
| 1777328110 | 22.78° C | 27% | 1023 hPa | 0 mm | - | 119 W/m² | - |
| 1777327808 | 22.78° C | 25% | 1023.4 hPa | 0 mm | - | 157 W/m² | - |
| 1777327505 | 22.78° C | 28% | 1023.4 hPa | 0 mm | - | 185 W/m² | - |
| 1777327202 | 23.89° C | 26% | 1023.4 hPa | 0 mm | - | 209 W/m² | - |
| 1777326900 | 23.33° C | 25% | 1023.4 hPa | 0 mm | - | 234 W/m² | - |
| 1777326596 | 22.78° C | 24% | 1023.4 hPa | 0 mm | - | 250 W/m² | - |
| 1777326294 | 22.22° C | 25% | 1023 hPa | 0 mm | - | 263 W/m² | - |
| 1777325991 | 22.78° C | 26% | 1023.4 hPa | 0 mm | - | 275 W/m² | - |
| 1777325689 | 22.78° C | 27% | 1023.4 hPa | 0 mm | - | 287 W/m² | - |
| 1777325387 | 22.78° C | 25% | 1023.4 hPa | 0 mm | - | 282 W/m² | - |
| 1777325085 | 22.78° C | 24% | 1023.4 hPa | 0 mm | - | 227 W/m² | - |
| 1777324780 | 23.33° C | 24% | 1023.4 hPa | 0 mm | - | 164 W/m² | - |
| 1777324479 | 22.78° C | 25% | 1023.4 hPa | 0 mm | - | 114 W/m² | - |
| 1777324176 | 21.67° C | 25% | 1023.4 hPa | 0 mm | - | 391 W/m² | - |
| 1777323874 | 21.67° C | 28% | 1023.4 hPa | 0 mm | - | 140 W/m² | - |
| 1777323570 | 21.11° C | 27% | 1023.4 hPa | 0 mm | - | 131 W/m² | - |
* Rain latest hour (hover to see other rain measurements)
** Current wind speed in m/s (hover to see current wind gust speed)